Location: La Fredeussais
(48.1780°N, 1.3980°W)
Time: 09:33:57
(UTC+00:00)

ATLAS 2AS CENTAUR R/B - Pass Details

Date: 09 May 2021
Orbit: 949 x 1263 km, 63.7° (Epoch: 07 May)

Event Time Altitude Azimuth Distance (km) Brightness Sun altitude
Rises 22:51:31 0° 318° (NW) 4,112 6.9 -22.3°
Reaches altitude 10° 22:54:21 10° 318° (NW) 3,105 6.0 -22.5°
Maximum altitude 23:01:46 80° 234° (SW) 1,135 2.7 -22.8°
Enters shadow 23:04:17 43° 154° (SSE) 1,483 2.9 -22.9°
